When you browse on this site, cookies collect data to enhance your experience and personalize the content and advertising you see.
Visit our Privacy Policy to learn more. By continuing to use the site, you agree to this use of cookies and data.
  • En España
  • Lista de países
  • Para 7 días
  • Temperatura del agua
  • El tiempo en el mapa
  • Informadores
  • user-avatar
    Iniciar sesión

    Tiempo cada hora La Rinconada

    Hoy, 20 Febrero, Jueves

    Tiempo Temperatura Precipitaciones Viento Presión Humedad
    00:00 +12°C° 0 mm 3 mps 768 mmHg 86%
    01:00 +11°C° 0 mm 3 mps 767 mmHg 86%
    02:00 +11°C° 0 mm 3 mps 767 mmHg 86%
    03:00 +10°C° 0 mm 3 mps 766 mmHg 86%
    04:00 +10°C° 0 mm 3 mps 766 mmHg 87%
    05:00 +10°C° 0 mm 3 mps 766 mmHg 87%
    06:00 +10°C° 0 mm 3 mps 766 mmHg 88%
    07:00 +11°C° 0 mm 3 mps 766 mmHg 84%
    08:00 +12°C° 0 mm 4 mps 766 mmHg 80%
    09:00 +13°C° 0 mm 4 mps 766 mmHg 76%
    10:00 +16°C° 0 mm 3 mps 766 mmHg 70%
    11:00 +18°C° 0 mm 3 mps 766 mmHg 63%
    12:00 +19°C° 0 mm 3 mps 765 mmHg 57%
    13:00 +20°C° 0 mm 3 mps 765 mmHg 55%
    14:00 +21°C° 0 mm 2 mps 764 mmHg 53%
    15:00 +21°C° 0 mm 2 mps 764 mmHg 51%
    16:00 +20°C° 0 mm 2 mps 764 mmHg 57%
    17:00 +19°C° 0 mm 2 mps 764 mmHg 62%
    18:00 +17°C° 0 mm 2 mps 764 mmHg 67%
    19:00 +16°C° 0 mm 2 mps 765 mmHg 69%
    20:00 +16°C° 0 mm 2 mps 765 mmHg 70%
    21:00 +15°C° 0 mm 2 mps 766 mmHg 71%
    22:00 +15°C° 0 mm 2 mps 766 mmHg 71%
    23:00 +14°C° 0 mm 2 mps 766 mmHg 72%

    Mañana, 21 Febrero, Viernes

    Tiempo Temperatura Precipitaciones Viento Presión Humedad
    00:00 +14°C° 0 mm 2 mps 766 mmHg 72%
    01:00 +13°C° 0 mm 2 mps 766 mmHg 73%
    02:00 +13°C° 0 mm 2 mps 766 mmHg 74%
    03:00 +12°C° 0 mm 2 mps 766 mmHg 75%
    04:00 +12°C° 0 mm 2 mps 766 mmHg 76%
    05:00 +11°C° 0 mm 3 mps 766 mmHg 76%
    06:00 +11°C° 0 mm 3 mps 767 mmHg 76%
    13:00 +21°C° 0 mm 4 mps 768 mmHg 49%
    14:00 +22°C° 0 mm 3 mps 767 mmHg 48%
    15:00 +24°C° 0 mm 3 mps 767 mmHg 47%
    16:00 +21°C° 0 mm 3 mps 767 mmHg 52%
    17:00 +19°C° 0 mm 2 mps 767 mmHg 58%
    18:00 +18°C° 0 mm 2 mps 767 mmHg 63%
    19:00 +17°C° 0 mm 2 mps 768 mmHg 65%
    20:00 +15°C° 0 mm 2 mps 768 mmHg 66%
    21:00 +14°C° 0 mm 2 mps 769 mmHg 67%
    22:00 +14°C° 0 mm 2 mps 769 mmHg 68%
    23:00 +13°C° 0 mm 2 mps 769 mmHg 68%

    Pasado mañana, 22 Febrero, Sábado

    Tiempo Temperatura Precipitaciones Viento Presión Humedad
    00:00 +13°C° 0 mm 2 mps 769 mmHg 69%
    01:00 +11°C° 0 mm 3 mps 769 mmHg 70%
    02:00 +11°C° 0 mm 3 mps 769 mmHg 71%
    03:00 +11°C° 0 mm 3 mps 769 mmHg 72%
    04:00 +11°C° 0 mm 3 mps 770 mmHg 73%
    05:00 +10°C° 0 mm 3 mps 770 mmHg 75%
    06:00 +10°C° 0 mm 3 mps 770 mmHg 76%
    07:00 +11°C° 0 mm 3 mps 770 mmHg 73%
    08:00 +13°C° 0 mm 4 mps 770 mmHg 70%
    09:00 +14°C° 0 mm 4 mps 770 mmHg 67%
    10:00 +17°C° 0 mm 4 mps 770 mmHg 61%
    11:00 +19°C° 0 mm 4 mps 770 mmHg 55%
    12:00 +21°C° 0 mm 4 mps 770 mmHg 49%
    13:00 +21°C° 0 mm 4 mps 770 mmHg 47%
    14:00 +22°C° 0 mm 4 mps 769 mmHg 45%
    15:00 +23°C° 0 mm 4 mps 769 mmHg 43%
    16:00 +21°C° 0 mm 3 mps 769 mmHg 49%
    17:00 +20°C° 0 mm 3 mps 769 mmHg 55%
    18:00 +18°C° 0 mm 3 mps 769 mmHg 61%
    19:00 +17°C° 0 mm 3 mps 770 mmHg 60%
    20:00 +16°C° 0 mm 2 mps 770 mmHg 59%
    21:00 +15°C° 0 mm 2 mps 770 mmHg 58%
    22:00 +14°C° 0 mm 2 mps 770 mmHg 58%
    23:00 +14°C° 0 mm 2 mps 771 mmHg 57%

    23 Febrero, Domingo

    Tiempo Temperatura Precipitaciones Viento Presión Humedad
    00:00 +13°C° 0 mm 2 mps 771 mmHg 57%
    01:00 +13°C° 0 mm 2 mps 770 mmHg 59%
    02:00 +11°C° 0 mm 3 mps 770 mmHg 60%
    03:00 +11°C° 0 mm 3 mps 770 mmHg 61%
    04:00 +11°C° 0 mm 3 mps 770 mmHg 63%
    05:00 +11°C° 0 mm 3 mps 770 mmHg 64%
    06:00 +10°C° 0 mm 3 mps 770 mmHg 65%
    07:00 +12°C° 0 mm 4 mps 771 mmHg 63%
    08:00 +13°C° 0 mm 4 mps 771 mmHg 61%
    09:00 +14°C° 0 mm 4 mps 771 mmHg 59%
    10:00 +17°C° 0 mm 4 mps 771 mmHg 53%
    11:00 +19°C° 0 mm 4 mps 771 mmHg 48%
    12:00 +21°C° 0 mm 5 mps 771 mmHg 43%
    13:00 +22°C° 0 mm 4 mps 770 mmHg 41%
    14:00 +23°C° 0 mm 4 mps 770 mmHg 40%
    15:00 +23°C° 0 mm 4 mps 769 mmHg 38%
    16:00 +22°C° 0 mm 4 mps 769 mmHg 43%
    17:00 +20°C° 0 mm 3 mps 769 mmHg 48%
    18:00 +18°C° 0 mm 2 mps 769 mmHg 53%
    19:00 +17°C° 0 mm 2 mps 769 mmHg 53%
    20:00 +16°C° 0 mm 2 mps 770 mmHg 54%
    21:00 +14°C° 0 mm 2 mps 770 mmHg 54%
    22:00 +14°C° 0 mm 2 mps 770 mmHg 55%
    23:00 +14°C° 0 mm 2 mps 770 mmHg 56%

    24 Febrero, Lunes

    Tiempo Temperatura Precipitaciones Viento Presión Humedad
    00:00 +13°C° 0 mm 2 mps 770 mmHg 57%
    01:00 +13°C° 0 mm 2 mps 770 mmHg 58%
    02:00 +12°C° 0 mm 2 mps 770 mmHg 59%
    03:00 +12°C° 0 mm 2 mps 770 mmHg 60%
    04:00 +12°C° 0 mm 2 mps 770 mmHg 61%
    05:00 +12°C° 0 mm 2 mps 770 mmHg 62%
    06:00 +10°C° 0 mm 2 mps 769 mmHg 63%
    07:00 +13°C° 0 mm 2 mps 770 mmHg 61%
    08:00 +14°C° 0 mm 2 mps 770 mmHg 59%
    09:00 +15°C° 0 mm 2 mps 770 mmHg 58%
    10:00 +17°C° 0 mm 2 mps 770 mmHg 51%
    11:00 +20°C° 0 mm 2 mps 769 mmHg 45%
    12:00 +23°C° 0 mm 2 mps 769 mmHg 39%
    13:00 +24°C° 0 mm 2 mps 768 mmHg 37%
    14:00 +24°C° 0 mm 1 mps 768 mmHg 36%
    15:00 +25°C° 0 mm 1 mps 767 mmHg 34%
    16:00 +23°C° 0 mm 1 mps 767 mmHg 40%
    17:00 +21°C° 0 mm 1 mps 767 mmHg 46%
    18:00 +17°C° 0 mm 0 mps 767 mmHg 51%
    19:00 +18°C° 0 mm 1 mps 767 mmHg 54%
    20:00 +16°C° 0 mm 1 mps 768 mmHg 56%
    21:00 +15°C° 0 mm 1 mps 768 mmHg 59%
    22:00 +14°C° 0 mm 1 mps 768 mmHg 60%
    23:00 +14°C° 0 mm 1 mps 768 mmHg 61%

    25 Febrero, Martes

    Tiempo Temperatura Precipitaciones Viento Presión Humedad
    00:00 +13°C° 0 mm 1 mps 768 mmHg 62%
    01:00 +13°C° 0 mm 1 mps 768 mmHg 63%
    02:00 +12°C° 0 mm 1 mps 768 mmHg 64%
    03:00 +12°C° 0 mm 1 mps 767 mmHg 65%
    04:00 +12°C° 0 mm 1 mps 767 mmHg 66%
    05:00 +11°C° 0 mm 1 mps 767 mmHg 67%
    06:00 +11°C° 0 mm 1 mps 767 mmHg 68%
    07:00 +12°C° 0 mm 1 mps 768 mmHg 66%
    08:00 +14°C° 0 mm 1 mps 768 mmHg 63%
    09:00 +14°C° 0 mm 0 mps 768 mmHg 61%
    10:00 +18°C° 0 mm 1 mps 768 mmHg 56%
    11:00 +20°C° 0 mm 1 mps 768 mmHg 51%
    12:00 +22°C° 0 mm 1 mps 768 mmHg 46%
    13:00 +23°C° 0 mm 2 mps 767 mmHg 43%
    14:00 +23°C° 0 mm 2 mps 766 mmHg 41%
    15:00 +24°C° 0 mm 3 mps 766 mmHg 38%
    16:00 +21°C° 0 mm 3 mps 766 mmHg 44%
    17:00 +20°C° 0 mm 3 mps 766 mmHg 50%
    18:00 +18°C° 0 mm 3 mps 766 mmHg 56%
    19:00 +16°C° 0 mm 2 mps 766 mmHg 60%
    20:00 +15°C° 0 mm 2 mps 766 mmHg 64%
    21:00 +13°C° 0 mm 2 mps 767 mmHg 67%
    22:00 +13°C° 0 mm 2 mps 767 mmHg 70%
    23:00 +12°C° 0 mm 1 mps 767 mmHg 73%
    Mostrar más